Weather History for CYXE - January, 2013

Change the Weather History Date:

Wednesday, January 23, 2013

  Actual Average Record
Temperature  
Mean Temperature -10 °F -  
Max Temperature -5 °F 15 °F 39 °F (2006)
Min Temperature -16 °F -4 °F -27 °F (2009)
Degree Days  
Heating Degree Days 76    
Moisture  
Dew Point -16 °F    
Average Humidity 76    
Maximum Humidity 84    
Minimum Humidity 71    
Precipitation  
Precipitation 0.00 in 0.02 in - ()
Sea Level Pressure  
Sea Level Pressure 30.56 in    
Wind  
Wind Speed 9 mph ()    
Max Wind Speed 21 mph    
Max Gust Speed 28 mph    
Visibility 13.4 miles    
Events Snow    
Averages and records for this station are not official NWS values.
T = Trace of Precipitation, MM = Missing Value Source: Averaged Metar Reports

Daily Weather History Graph

Daily Weather History Graph

Search for Another Location

Airport or City:

Trip Planner

Search our weather history database for the weather conditions in past years. The results will help you decide how hot, cold, wet, or windy it might be!

Date:

Astronomy

Jan. 23, 2013 Rise Set
Actual Time 8:59 AM CST 5:38 PM CST
Civil Twilight 8:21 AM CST 6:16 PM CST
Nautical Twilight 7:39 AM CST 6:58 PM CST
Astronomical Twilight 6:59 AM CST 7:38 PM CST
Moon 2:44 PM CST (1/23) 6:19 AM CST (1/23)
Length of Visible Light 9h 55m
Length of Day
8h 38m
Waxing Gibbous, 89% of the Moon is Illuminated
Jan 23
Waxing Gibbous
Jan 26
Full
Feb 3
Last Quarter
Feb 10
New
Feb 17
First Quarter

Hourly Weather History & Observations

Time (CST) Temp. Windchill Dew Point Humidity Pressure Visibility Wind Dir Wind Speed Gust Speed Precip Events Conditions
12:00 AM -13.0 °F -31.3 °F -18.4 °F 77% 30.46 in 15.0 mi NW 9.2 mph - N/A   Partly Cloudy
1:00 AM -13.0 °F -31.3 °F -16.6 °F 84% 30.48 in 15.0 mi NW 9.2 mph - N/A   Clear
2:00 AM -13.0 °F -32.4 °F -18.4 °F 77% 30.50 in 15.0 mi North 10.4 mph - N/A   Clear
3:00 AM -16.6 °F -34.4 °F -22.0 °F 76% 30.53 in 15.0 mi NNW 8.1 mph - N/A   Clear
4:00 AM -16.6 °F -32.9 °F -20.2 °F 84% 30.56 in 15.0 mi NNW 6.9 mph - N/A   Clear
5:00 AM -14.8 °F -32.2 °F -18.4 °F 84% 30.57 in 15.0 mi North 8.1 mph - N/A   Clear
6:00 AM -13.0 °F -28.6 °F -18.4 °F 77% 30.58 in 15.0 mi North 6.9 mph - N/A   Clear
7:00 AM -14.8 °F -29.1 °F -18.4 °F 84% 30.61 in 15.0 mi NNW 5.8 mph - N/A   Clear
8:00 AM -13.0 °F -27.0 °F -18.4 °F 77% 30.63 in 15.0 mi North 5.8 mph - N/A   Clear
9:00 AM -14.8 °F - -20.2 °F 77% 30.64 in 15.0 mi Calm Calm - N/A   Scattered Clouds
10:00 AM -13.0 °F -28.6 °F -18.4 °F 77% 30.66 in 15.0 mi NE 6.9 mph - N/A   Overcast
11:00 AM -11.2 °F -24.8 °F -16.6 °F 77% 30.66 in 15.0 mi East 5.8 mph - N/A   Overcast
12:00 PM -9.4 °F -22.7 °F -14.8 °F 77% 30.68 in 15.0 mi East 5.8 mph - N/A   Overcast
1:00 PM -7.6 °F -25.7 °F -13.0 °F 77% 30.66 in 15.0 mi SE 10.4 mph - N/A   Overcast
2:00 PM -7.6 °F -25.7 °F -14.8 °F 71% 30.66 in 15.0 mi ESE 10.4 mph - N/A   Overcast
3:00 PM -7.6 °F -25.7 °F -14.8 °F 71% 30.64 in 15.0 mi ESE 10.4 mph - N/A   Overcast
4:00 PM -7.6 °F -27.5 °F -14.8 °F 71% 30.61 in 15.0 mi ESE 12.7 mph - N/A   Overcast
4:38 PM -7.6 °F -29.1 °F -14.8 °F 71% 30.61 in 15.0 mi ESE 15.0 mph - N/A Snow Light Snow
5:00 PM -7.6 °F -29.8 °F -14.8 °F 71% 30.60 in 15.0 mi ESE 16.1 mph - N/A Snow Light Snow
5:55 PM -7.6 °F -29.1 °F -13.0 °F 77% 30.58 in 15.0 mi SE 15.0 mph - N/A   Overcast
7:00 PM -7.6 °F -29.1 °F -14.8 °F 71% 30.55 in 15.0 mi ESE 15.0 mph - N/A   Overcast
9:00 PM -7.6 °F -28.3 °F -13.0 °F 77% 30.51 in 15.0 mi SE 13.8 mph 20.7 mph N/A   Overcast
9:27 PM -7.6 °F -31.7 °F -13.0 °F 77% 30.48 in 15.0 mi ESE 19.6 mph - N/A Snow Light Snow
10:00 PM -5.8 °F -28.2 °F -13.0 °F 71% 30.46 in 12.0 mi ESE 17.3 mph 24.2 mph N/A Snow Light Snow
10:35 PM -5.8 °F -28.8 °F -11.2 °F 77% 30.44 in 2.5 mi ESE 18.4 mph 25.3 mph N/A Snow Light Snow
11:00 PM -5.8 °F -29.4 °F -11.2 °F 77% 30.43 in 2.0 mi SE 19.6 mph 26.5 mph N/A Snow Light Snow
11:12 PM -5.8 °F -29.9 °F -11.2 °F 77% 30.42 in 1.5 mi ESE 20.7 mph 27.6 mph N/A Snow Light Snow